TimeMST,TemperatureF,Dew PointF,Humidity,Sea Level PressureIn,VisibilityMPH,Wind Direction,Wind SpeedMPH,Gust SpeedMPH,PrecipitationIn,Events,Conditions,WindDirDegrees,DateUTC
12:53 AM,37.0,27.0,67,30.12,10.0,West,8.1,-,N/A,,Clear,270,2012-11-06 07:53:00
1:53 AM,36.0,27.0,70,30.13,10.0,WSW,10.4,-,N/A,,Clear,250,2012-11-06 08:53:00
2:53 AM,34.0,26.1,73,30.15,10.0,WSW,4.6,-,N/A,,Clear,250,2012-11-06 09:53:00
3:53 AM,34.0,26.1,73,30.15,10.0,WSW,4.6,-,N/A,,Clear,250,2012-11-06 10:53:00
5:53 AM,33.1,25.0,72,30.22,10.0,WSW,10.4,-,N/A,,Clear,250,2012-11-06 12:53:00
6:53 AM,28.0,23.0,81,30.27,10.0,Calm,Calm,-,N/A,,Clear,0,2012-11-06 13:53:00
7:53 AM,37.9,28.9,70,30.24,10.0,East,3.5,-,N/A,,Clear,100,2012-11-06 14:53:00
8:53 AM,46.9,30.0,52,30.19,10.0,SW,10.4,-,N/A,,Clear,220,2012-11-06 15:53:00
9:53 AM,51.1,27.0,39,30.16,10.0,West,15.0,-,N/A,,Clear,260,2012-11-06 16:53:00
10:53 AM,55.0,23.0,29,30.14,10.0,West,12.7,20.7,N/A,,Clear,270,2012-11-06 17:53:00
11:53 AM,57.9,23.0,26,30.12,10.0,West,20.7,24.2,N/A,,Clear,270,2012-11-06 18:53:00
12:53 PM,59.0,24.1,26,30.09,10.0,West,21.9,26.5,N/A,,Clear,260,2012-11-06 19:53:00
1:53 PM,59.0,23.0,25,30.08,10.0,West,21.9,27.6,N/A,,Clear,260,2012-11-06 20:53:00
2:53 PM,57.9,24.1,27,30.10,10.0,West,17.3,24.2,N/A,,Clear,260,2012-11-06 21:53:00
3:53 PM,57.9,21.9,25,30.11,10.0,NW,12.7,-,N/A,,Clear,320,2012-11-06 22:53:00
4:53 PM,48.0,24.1,39,30.16,10.0,NW,11.5,-,N/A,,Clear,310,2012-11-06 23:53:00
5:53 PM,44.1,24.1,45,30.21,10.0,West,6.9,-,N/A,,Clear,270,2012-11-07 00:53:00
6:53 PM,39.9,24.1,53,30.26,10.0,WSW,8.1,-,N/A,,Clear,240,2012-11-07 01:53:00
7:53 PM,37.9,25.0,60,30.21,10.0,South,10.4,-,N/A,,Clear,170,2012-11-07 02:53:00
8:53 PM,37.0,24.1,59,30.16,10.0,SW,4.6,-,N/A,,Clear,220,2012-11-07 03:53:00
9:53 PM,30.9,23.0,72,30.17,10.0,SSE,4.6,-,N/A,,Clear,150,2012-11-07 04:53:00
10:53 PM,30.9,23.0,72,30.13,10.0,SSW,8.1,-,N/A,,Clear,200,2012-11-07 05:53:00
11:53 PM,30.0,21.9,72,30.12,10.0,SSE,8.1,-,N/A,,Clear,150,2012-11-07 06:53:00